DMSP 5D-3 F16 DEB

Satellite information

Favourite Embed

Satellite Type and Status

DEBRISIN ORBIT

Key statistics

Satellite DMSP 5D-3 F16 DEB at a glance.

Uptime

7995

Days in orbit

Revolutions

≈ 14.4

Per day

Orbit

SSO

Sun Synchronous Orbit

Inclination

98.6

Latest

Satellite identification and parameters

Extended collection of information and parameters for DMSP 5D-3 F16 DEB.

Object identification

Identified? True

Debris? True

Object name: DMSP 5D-3 F16 DEB

International designator: 2003-048D

Object number (NORAD): 28080

Object ID (CCSDS): 28080

Country: UNITED STATES OF AMERICA (US)

Current information (Y/N): Y

RCS size: SMALL

Orbital parameters

Period: 100.147 minutes

Inclination: 98.5837 deg

SMA: 7143.607 km

Apoapsis: 768.188 km

Periapsis: 762.756 km

RAAN: 243.3915 deg

Eccentricy: 0.00038024

Argument of periapsis: 185.2544 deg

Mean anomaly: 174.8604 deg

Mean motion: 14.37892547 rev/day

Mean motion (dot): 0.00005687 rev/day2

B* drag term: 0.0018974773 1/REarth

Two-line elements (TLE)

Creation date: Sept. 7, 2025, 3:09 a.m.

Reference frame: TEME

Reference center: EARTH

Epoch: Sept. 6, 2025, 9:34 p.m. UTC

TLE line 0: 0 DMSP 5D-3 F16 DEB

TLE line 1: 1 28080U 03048D 25249.89898158 .00005687 00000-0 18975-2 0 9999

TLE line 2: 2 28080 98.5837 243.3915 0003802 185.2544 174.8604 14.37892547133219

Live tracking on map

Real-time ground track for satellite DMSP 5D-3 F16 DEB.

In-orbit conjunctions

A list of the most updated potential collisions computed for object DMSP 5D-3 F16 DEB.

Target Orbit TCA Probability of collision Miss distance Type
FENGYUN 1C DEB SSO 2024-12-24 02:34:17 0.0003372654 88.0 (m) DEBRIS
COSMOS 2251 DEB LEO 2024-11-17 10:15:52 0.0001504675 88.0 (m) DEBRIS
COSMOS 858 LEO 2024-11-07 02:28:35 0.0001532949 642.0 (m) PAYLOAD

Associated space launch

The 16th flight of the Defense Meteorological Satellite Program Block 5D series with a main mission of cloud imagery and MW imaging/temperature/humidity sounding.

DMSP 5D-3 F16 DEB was lifted into orbit during the mission ‘Titan II SLV | DMSP F-16’, on board a Titan II SLV space rocket.

The launch took place on Oct. 18, 2003, 4:17 p.m. from Space Launch Complex 4W.

For more information about the launch, click the button.

Launch to space Titan II SLV | DMSP F-16
Titan II SLV | DMSP F-16

Agency: N/A

Status: Launch Successful

Launch date: Oct. 18, 2003, 4:17 p.m. UTC

Rocket: Titan II SLV

Launch pad: Space Launch Complex 4W

Location: Vandenberg SFB, CA, USA

...

Latest news about this satellite

There are no fresh news available about this satellite. Check back as we update our databases every day.


Newsletter sign-up

Weekly statistics, charts and insights to help you stay on top of the space industry.